Regional Weather Roundup
Issued by NWS

Home | Current Version | Previous Version | Text Only | Print | Product List | Glossary On
Versions: 1 2 3 4 5 6 7 8 9 10 11 12 13 14 15 16 17 18 19 20 21 22 23 24 25 26 27 28
000
ASUS46 KSEW 192210
RWRWA

WASHINGTON REGIONAL WEATHER ROUNDUP
NATIONAL WEATHER SERVICE SEATTLE WA
300 PM PDT SAT APR 19 2014

NOTE:"FAIR" INDICATES FEW OR NO CLOUDS BELOW 12,000 FEET WITH NO
SIGNIFICANT WEATHER AND/OR OBSTRUCTIONS TO VISIBILITY.

WAZ505-507>509-192300-
SEATTLE, TACOMA, EVERETT, AND VICINITY

CITY           SKY/WX    TMP DP  RH WIND       PRES   REMARKS
EVERETT        CLOUDY    47  44  90 S13G21    29.90R
BOEING FIELD   CLOUDY    53  47  79 SE14      29.91S
RENTON         CLOUDY    51  48  89 SE5       29.91S
SEATAC AIRPORT CLOUDY    50  48  93 SE10      29.92R
JBLM-MCCHORD   PTSUNNY   54  48  82 SW13G24   29.92R
PUYALLUP         N/A     54  46  76 S7G16     29.92S
JBLM-FT LEWIS  DRIZZLE   54  47  77 S17G25    29.91R
TACOMA NARROWS PTSUNNY   52  46  80 S13       29.91R
$$

WAZ001-503-506-510-514-515-192300-
NORTH INTERIOR

CITY           SKY/WX    TMP DP  RH WIND       PRES   REMARKS
BELLINGHAM     LGT RAIN  50  42  74 SE22G33   29.85R
FRIDAY HARBOR  CLOUDY    50  43  77 SE18G24   29.85R
EASTSOUND      LGT RAIN  48  45  87 S13G26    29.83R
PORT ANGELES   LGT RAIN  52  40  63 NE5       29.83R
NAS WHIDBEY    PTSUNNY   54  44  69 SE31G43   29.86R
BURLINGTON     PTSUNNY   54  46  76 SE15G25   29.88R
$$

WAZ020-022-039-040-504-511-512-192300-
SOUTHWEST INTERIOR

CITY           SKY/WX    TMP DP  RH WIND       PRES   REMARKS
SHELTON        LGT RAIN  46  44  93 CALM      29.89R
OLYMPIA        CLOUDY    52  48  86 S16G24    29.92R
CHEHALIS       LGT RAIN  52  48  87 S13       29.96R
KELSO          PTSUNNY   55  46  71 S6        30.02R
VANCOUVER      PTSUNNY   56  48  74 S9G20     30.00R
SCAPPOOSE, OR  CLOUDY    55  49  80 SW9       29.99R
PORTLAND, OR   LGT RAIN  55  50  83 S15       30.01R
$$

WAZ021-516-517-192300-
WASHINGTON COAST

CITY           SKY/WX    TMP DP  RH WIND       PRES   REMARKS
FORKS          LGT RAIN  49  48  97 SW12G21   29.86R FOG
HOQUIAM        LGT RAIN  51  48  89 SW25      29.92R FOG
ASTORIA, OR    LGT RAIN  51  45  79 SW10G22   29.98R
$$

WAZ019-023-024-040-518-519-192300-
CASCADE MOUNTAINS AND COLUMBIA GORGE

CITY           SKY/WX    TMP DP  RH WIND       PRES   REMARKS
STAMPEDE PASS  NOT AVBL
TROUTDALE, OR  PTSUNNY   58  48  69 S15       30.00R HAZE
THE DALLES, OR PTSUNNY   65  37  35 W26G33    29.94R
$$

WAZ026-027-041>044-520-521-192300-
EAST SLOPES

CITY           SKY/WX    TMP DP  RH WIND       PRES   REMARKS
OMAK           MOSUNNY   60  29  30 SW7       29.81R
WENATCHEE      CLOUDY    61  26  26 CALM      29.83S
ELLENSBURG     CLOUDY    58  38  47 NW13      29.85S
YAKIMA         PTSUNNY   60  37  42 SW20G32   29.85S
$$

WAZ028-034-035-192300-
COLUMBIA BASIN

CITY           SKY/WX    TMP DP  RH WIND       PRES   REMARKS
EPHRATA        MOSUNNY   65  27  23 SW20G28   29.84R
MOSES LAKE     PTSUNNY   62  27  26 S12       29.85R
HANFORD        NOT AVBL
PASCO          MOSUNNY   72  33  24 SW21G28   29.85S
HERMISTON, OR  SUNNY     67  36  31 NW3       29.86S
$$

WAZ036>038-192300-
NORTHEAST WASHINGTON

CITY           SKY/WX    TMP DP  RH WIND       PRES   REMARKS
SPOKANE GEIGER PTSUNNY   61  26  26 SW15      29.83R
SPOKANE FELTS  PTSUNNY   64  29  26 SW13      29.83R
FAIRCHILD AFB  CLOUDY    60  30  32 SW14      29.83S
COEURDALENE,ID CLOUDY    63  32  31 S8G16     29.83F
DEER PARK      PTSUNNY   59  30  33 VRB3      29.83F
$$

WAZ029>033-192300-
SOUTHEAST WASHINGTON

CITY           SKY/WX    TMP DP  RH WIND       PRES   REMARKS
PULLMAN        MOSUNNY   61  32  33 W18       29.88R
LEWISTON, ID   MOSUNNY   69  30  23 W9        29.83R
WALLA WALLA    CLOUDY    62  35  36 S5        29.88S
PENDLETON, OR  MOSUNNY   65  33  30 NW7       29.86S
$$



USA.gov is the U.S. government's official web portal to all federal, state and local government web resources and services.